Change the Weather History Date:

Monday, January 6, 2014

  Actual Average Record
Temperature  
Mean Temperature 58 °F -  
Max Temperature 68 °F 68 °F 80 °F (2003)
Min Temperature 49 °F 51 °F 41 °F (2009)
Degree Days  
Heating Degree Days 6    
Growing Degree Days 8 (Base 50)    
Moisture  
Dew Point 39 °F    
Average Humidity 45    
Maximum Humidity 67    
Minimum Humidity 22    
Precipitation  
Precipitation 0.00 in 0.01 in - ()
Sea Level Pressure  
Sea Level Pressure 30.15 in    
Wind  
Wind Speed 8 mph ()    
Max Wind Speed 18 mph    
Max Gust Speed -    
Averages and records for this station are not official NWS values.
T = Trace of Precipitation, MM = Missing Value Source: Averaged Metar Reports

Daily Weather History Graph

Daily Weather History Graph

Search for Another Location

Airport or City:

Trip Planner

Search our weather history database for the weather conditions in past years. The results will help you decide how hot, cold, wet, or windy it might be!

Date:

Astronomy

Jan. 06, 2014 Rise Set
Actual Time 6:35 AM IST 4:56 PM IST
Civil Twilight 6:09 AM IST 5:22 PM IST
Nautical Twilight 5:40 AM IST 5:51 PM IST
Astronomical Twilight 5:11 AM IST 6:20 PM IST
Moon 10:06 AM IST (1/6) 10:37 PM IST (1/6)
Length of Visible Light 11h 12m
Length of Day
10h 20m
Waxing Crescent, 31% of the Moon is Illuminated
Jan 6
Waxing Crescent
Jan 8
First Quarter
Jan 16
Full
Jan 24
Last Quarter
Jan 30
New

Hourly Weather History & Observations

Time (IST) Temp. Dew Point Humidity Pressure Visibility Wind Dir Wind Speed Gust Speed Precip Events Conditions
2:00 AM 55 °F 42 °F 51% 30.13 in - NE 2.3 mph - -  
5:00 AM 52 °F 41 °F 57% 30.14 in - NNE 3.5 mph - -  
5:30 AM 51.8 °F 41.0 °F 67% 30.15 in - NE 8.1 mph - N/A   Clear
5:50 AM 51.8 °F 41.0 °F 67% 30.15 in - NE 9.2 mph - N/A   Clear
6:50 AM 50.0 °F 39.2 °F 66% 30.18 in - NE 9.2 mph - N/A   Clear
7:50 AM 51.8 °F 41.0 °F 67% 30.18 in - NE 8.1 mph - N/A   Clear
8:00 AM 54 °F 41 °F 52% 30.18 in - NE 3.5 mph - -  
8:50 AM 57.2 °F 42.8 °F 59% 30.21 in - NE 10.4 mph - N/A   Clear
9:50 AM 59.0 °F 41.0 °F 51% 30.21 in - NE 13.8 mph - N/A   Clear
10:50 AM 62.6 °F 37.4 °F 39% 30.18 in - NE 12.7 mph - N/A   Clear
11:00 AM 64 °F 41 °F 32% 30.18 in - NE 6.9 mph - -  
11:50 AM 64.4 °F 41.0 °F 42% 30.18 in - NE 18.4 mph - N/A   Clear
12:50 PM 66.2 °F 41.0 °F 40% 30.15 in - ENE 12.7 mph - N/A   Clear
1:50 PM 66.2 °F 39.2 °F 37% 30.12 in - NE 15.0 mph - N/A   Clear
2:00 PM 68 °F 38 °F 22% 30.10 in - NNE 8.1 mph - -  
2:50 PM 68.0 °F 39.2 °F 35% 30.12 in - NE 17.3 mph - N/A   Clear
3:50 PM 66.2 °F 37.4 °F 35% 30.12 in - NE 16.1 mph - N/A   Clear
4:50 PM 64.4 °F 35.6 °F 34% 30.12 in - NE 16.1 mph - N/A   Clear
5:00 PM 64 °F 35 °F 23% 30.11 in - NNE 8.1 mph - -  
5:50 PM 62.6 °F 37.4 °F 39% 30.15 in - NNE 11.5 mph - N/A   Clear
6:50 PM 60.8 °F 35.6 °F 39% 30.15 in - NE 8.1 mph - N/A   Clear
7:50 PM 59.0 °F 37.4 °F 45% 30.15 in - NNE 12.7 mph - N/A   Clear
8:00 PM 58 °F 36 °F 32% 30.16 in - North 4.6 mph - -  
8:50 PM 57.2 °F 37.4 °F 48% 30.15 in - NE 10.4 mph - N/A   Clear
9:50 PM 55.4 °F 37.4 °F 51% 30.15 in - NNE 10.4 mph - N/A   Clear
11:00 PM 54 °F 37 °F 42% 30.14 in - North 2.3 mph - -